Date_Time,Julian_Date,Latitude,Longitude,Instrument_Depth,Water_Salinity
(yyyy-mm-dd hh:mn:ss UTC),(JD),(+ deg. North),(+ deg. East),(m),(ppt)
1981-09-23 21:00:00 UTC,2444871.375000,28.7333,-95.2403,0215,0.3530
1981-09-23 21:30:00 UTC,2444871.395833,28.7333,-95.2403,0215,0.3540
1981-09-23 22:00:00 UTC,2444871.416667,28.7333,-95.2403,0215,0.3560
1981-09-23 22:30:00 UTC,2444871.437500,28.7333,-95.2403,0215,0.3570
1981-09-23 23:00:00 UTC,2444871.458333,28.7333,-95.2403,0215,0.3550
1981-09-23 23:30:00 UTC,2444871.479167,28.7333,-95.2403,0215,0.3530
1981-09-24 00:00:00 UTC,2444871.500000,28.7333,-95.2403,0215,0.3540
1981-09-24 00:30:00 UTC,2444871.520833,28.7333,-95.2403,0215,0.3560
1981-09-24 01:00:00 UTC,2444871.541667,28.7333,-95.2403,0215,0.3550
1981-09-24 01:30:00 UTC,2444871.562500,28.7333,-95.2403,0215,0.3530
1981-09-24 02:00:00 UTC,2444871.583333,28.7333,-95.2403,0215,0.3520
1981-09-24 02:30:00 UTC,2444871.604167,28.7333,-95.2403,0215,0.3540
1981-09-24 03:00:00 UTC,2444871.625000,28.7333,-95.2403,0215,0.3560
1981-09-24 03:30:00 UTC,2444871.645833,28.7333,-95.2403,0215,0.3570
1981-09-24 04:00:00 UTC,2444871.666667,28.7333,-95.2403,0215,0.3570
1981-09-24 04:30:00 UTC,2444871.687500,28.7333,-95.2403,0215,0.3560
1981-09-24 05:00:00 UTC,2444871.708333,28.7333,-95.2403,0215,0.3560
1981-09-24 05:30:00 UTC,2444871.729167,28.7333,-95.2403,0215,0.3560
1981-09-24 06:00:00 UTC,2444871.750000,28.7333,-95.2403,0215,0.3560
1981-09-24 06:30:00 UTC,2444871.770833,28.7333,-95.2403,0215,0.3560
1981-09-24 07:00:00 UTC,2444871.791667,28.7333,-95.2403,0215,0.3560
1981-09-24 07:30:00 UTC,2444871.812500,28.7333,-95.2403,0215,0.3570
1981-09-24 08:00:00 UTC,2444871.833333,28.7333,-95.2403,0215,0.3590
1981-09-24 08:30:00 UTC,2444871.854167,28.7333,-95.2403,0215,0.3610
1981-09-24 09:00:00 UTC,2444871.875000,28.7333,-95.2403,0215,0.3610
1981-09-24 09:30:00 UTC,2444871.895833,28.7333,-95.2403,0215,0.3620
1981-09-24 10:00:00 UTC,2444871.916667,28.7333,-95.2403,0215,0.3620
1981-09-24 10:30:00 UTC,2444871.937500,28.7333,-95.2403,0215,0.3620
1981-09-24 11:00:00 UTC,2444871.958333,28.7333,-95.2403,0215,0.3640
1981-09-24 11:30:00 UTC,2444871.979167,28.7333,-95.2403,0215,0.3660
1981-09-24 12:00:00 UTC,2444872.000000,28.7333,-95.2403,0215,0.3680
1981-09-24 12:30:00 UTC,2444872.020833,28.7333,-95.2403,0215,0.3710
1981-09-24 13:00:00 UTC,2444872.041667,28.7333,-95.2403,0215,0.3730
1981-09-24 13:30:00 UTC,2444872.062500,28.7333,-95.2403,0215,0.3740
1981-09-24 14:00:00 UTC,2444872.083333,28.7333,-95.2403,0215,0.3740
1981-09-24 14:30:00 UTC,2444872.104167,28.7333,-95.2403,0215,0.3750
1981-09-24 15:00:00 UTC,2444872.125000,28.7333,-95.2403,0215,0.3740
1981-09-24 15:30:00 UTC,2444872.145833,28.7333,-95.2403,0215,0.3740
1981-09-24 16:00:00 UTC,2444872.166667,28.7333,-95.2403,0215,0.3730
1981-09-24 16:30:00 UTC,2444872.187500,28.7333,-95.2403,0215,0.3740
1981-09-24 17:00:00 UTC,2444872.208333,28.7333,-95.2403,0215,0.3740
1981-09-24 17:30:00 UTC,2444872.229167,28.7333,-95.2403,0215,0.3720
1981-09-24 18:00:00 UTC,2444872.250000,28.7333,-95.2403,0215,0.3670
1981-09-24 18:30:00 UTC,2444872.270833,28.7333,-95.2403,0215,0.3620
1981-09-24 19:00:00 UTC,2444872.291667,28.7333,-95.2403,0215,0.3610
1981-09-24 19:30:00 UTC,2444872.312500,28.7333,-95.2403,0215,0.3630
1981-09-24 20:00:00 UTC,2444872.333333,28.7333,-95.2403,0215,0.3640
1981-09-24 20:30:00 UTC,2444872.354167,28.7333,-95.2403,0215,0.3630
1981-09-24 21:00:00 UTC,2444872.375000,28.7333,-95.2403,0215,0.3620
1981-09-24 21:30:00 UTC,2444872.395833,28.7333,-95.2403,0215,0.3620
1981-09-24 22:00:00 UTC,2444872.416667,28.7333,-95.2403,0215,0.3620
1981-09-24 22:30:00 UTC,2444872.437500,28.7333,-95.2403,0215,0.3650
1981-09-24 23:00:00 UTC,2444872.458333,28.7333,-95.2403,0215,0.3700
1981-09-24 23:30:00 UTC,2444872.479167,28.7333,-95.2403,0215,0.3740
1981-09-25 00:00:00 UTC,2444872.500000,28.7333,-95.2403,0215,0.3750
1981-09-25 00:30:00 UTC,2444872.520833,28.7333,-95.2403,0215,0.3780
1981-09-25 01:00:00 UTC,2444872.541667,28.7333,-95.2403,0215,0.3800
1981-09-25 01:30:00 UTC,2444872.562500,28.7333,-95.2403,0215,0.3810
1981-09-25 02:00:00 UTC,2444872.583333,28.7333,-95.2403,0215,0.3810
1981-09-25 02:30:00 UTC,2444872.604167,28.7333,-95.2403,0215,0.3790
1981-09-25 03:00:00 UTC,2444872.625000,28.7333,-95.2403,0215,0.3790
1981-09-25 03:30:00 UTC,2444872.645833,28.7333,-95.2403,0215,0.3800
1981-09-25 04:00:00 UTC,2444872.666667,28.7333,-95.2403,0215,0.3790
1981-09-25 04:30:00 UTC,2444872.687500,28.7333,-95.2403,0215,0.3780
1981-09-25 05:00:00 UTC,2444872.708333,28.7333,-95.2403,0215,0.3800
1981-09-25 05:30:00 UTC,2444872.729167,28.7333,-95.2403,0215,0.3820
1981-09-25 06:00:00 UTC,2444872.750000,28.7333,-95.2403,0215,0.3800
1981-09-25 06:30:00 UTC,2444872.770833,28.7333,-95.2403,0215,0.3800
1981-09-25 07:00:00 UTC,2444872.791667,28.7333,-95.2403,0215,0.3810
1981-09-25 07:30:00 UTC,2444872.812500,28.7333,-95.2403,0215,0.3810
1981-09-25 08:00:00 UTC,2444872.833333,28.7333,-95.2403,0215,0.3780
1981-09-25 08:30:00 UTC,2444872.854167,28.7333,-95.2403,0215,0.3750
1981-09-25 09:00:00 UTC,2444872.875000,28.7333,-95.2403,0215,0.3730
1981-09-25 09:30:00 UTC,2444872.895833,28.7333,-95.2403,0215,0.3740
1981-09-25 10:00:00 UTC,2444872.916667,28.7333,-95.2403,0215,0.3740
1981-09-25 10:30:00 UTC,2444872.937500,28.7333,-95.2403,0215,0.3710
1981-09-25 11:00:00 UTC,2444872.958333,28.7333,-95.2403,0215,0.3680
1981-09-25 11:30:00 UTC,2444872.979167,28.7333,-95.2403,0215,0.3680
1981-09-25 12:00:00 UTC,2444873.000000,28.7333,-95.2403,0215,0.3670
1981-09-25 12:30:00 UTC,2444873.020833,28.7333,-95.2403,0215,0.3660
1981-09-25 13:00:00 UTC,2444873.041667,28.7333,-95.2403,0215,0.3660
1981-09-25 13:30:00 UTC,2444873.062500,28.7333,-95.2403,0215,0.3670
1981-09-25 14:00:00 UTC,2444873.083333,28.7333,-95.2403,0215,0.3660
1981-09-25 14:30:00 UTC,2444873.104167,28.7333,-95.2403,0215,0.3660
1981-09-25 15:00:00 UTC,2444873.125000,28.7333,-95.2403,0215,0.3660
1981-09-25 15:30:00 UTC,2444873.145833,28.7333,-95.2403,0215,0.3680
1981-09-25 16:00:00 UTC,2444873.166667,28.7333,-95.2403,0215,0.3690
1981-09-25 16:30:00 UTC,2444873.187500,28.7333,-95.2403,0215,0.3710
1981-09-25 17:00:00 UTC,2444873.208333,28.7333,-95.2403,0215,0.3750
1981-09-25 17:30:00 UTC,2444873.229167,28.7333,-95.2403,0215,0.3810
1981-09-25 18:00:00 UTC,2444873.250000,28.7333,-95.2403,0215,0.3870
1981-09-25 18:30:00 UTC,2444873.270833,28.7333,-95.2403,0215,0.3910
1981-09-25 19:00:00 UTC,2444873.291667,28.7333,-95.2403,0215,0.3910
1981-09-25 19:30:00 UTC,2444873.312500,28.7333,-95.2403,0215,0.3910
1981-09-25 20:00:00 UTC,2444873.333333,28.7333,-95.2403,0215,0.3940
1981-09-25 20:30:00 UTC,2444873.354167,28.7333,-95.2403,0215,0.3950
1981-09-25 21:00:00 UTC,2444873.375000,28.7333,-95.2403,0215,0.3920
1981-09-25 21:30:00 UTC,2444873.395833,28.7333,-95.2403,0215,0.3900
1981-09-25 22:00:00 UTC,2444873.416667,28.7333,-95.2403,0215,0.3880
1981-09-25 22:30:00 UTC,2444873.437500,28.7333,-95.2403,0215,0.3870
1981-09-25 23:00:00 UTC,2444873.458333,28.7333,-95.2403,0215,0.3860
1981-09-25 23:30:00 UTC,2444873.479167,28.7333,-95.2403,0215,0.3830
1981-09-26 00:00:00 UTC,2444873.500000,28.7333,-95.2403,0215,0.3800
1981-09-26 00:30:00 UTC,2444873.520833,28.7333,-95.2403,0215,0.3790
1981-09-26 01:00:00 UTC,2444873.541667,28.7333,-95.2403,0215,0.3790
1981-09-26 01:30:00 UTC,2444873.562500,28.7333,-95.2403,0215,0.3820
1981-09-26 02:00:00 UTC,2444873.583333,28.7333,-95.2403,0215,0.3880
1981-09-26 02:30:00 UTC,2444873.604167,28.7333,-95.2403,0215,0.3930
1981-09-26 03:00:00 UTC,2444873.625000,28.7333,-95.2403,0215,0.3950
1981-09-26 03:30:00 UTC,2444873.645833,28.7333,-95.2403,0215,0.3920
1981-09-26 04:00:00 UTC,2444873.666667,28.7333,-95.2403,0215,0.3910
1981-09-26 04:30:00 UTC,2444873.687500,28.7333,-95.2403,0215,0.3960
1981-09-26 05:00:00 UTC,2444873.708333,28.7333,-95.2403,0215,0.3990
1981-09-26 05:30:00 UTC,2444873.729167,28.7333,-95.2403,0215,0.3980
1981-09-26 06:00:00 UTC,2444873.750000,28.7333,-95.2403,0215,0.3990
1981-09-26 06:30:00 UTC,2444873.770833,28.7333,-95.2403,0215,0.4000
1981-09-26 07:00:00 UTC,2444873.791667,28.7333,-95.2403,0215,0.4000
1981-09-26 07:30:00 UTC,2444873.812500,28.7333,-95.2403,0215,0.3980
1981-09-26 08:00:00 UTC,2444873.833333,28.7333,-95.2403,0215,0.3950
1981-09-26 08:30:00 UTC,2444873.854167,28.7333,-95.2403,0215,0.3920
1981-09-26 09:00:00 UTC,2444873.875000,28.7333,-95.2403,0215,0.3920
1981-09-26 09:30:00 UTC,2444873.895833,28.7333,-95.2403,0215,0.3920
1981-09-26 10:00:00 UTC,2444873.916667,28.7333,-95.2403,0215,0.3930
1981-09-26 10:30:00 UTC,2444873.937500,28.7333,-95.2403,0215,0.3930
1981-09-26 11:00:00 UTC,2444873.958333,28.7333,-95.2403,0215,0.3930
1981-09-26 11:30:00 UTC,2444873.979167,28.7333,-95.2403,0215,0.3920
1981-09-26 12:00:00 UTC,2444874.000000,28.7333,-95.2403,0215,0.3900
1981-09-26 12:30:00 UTC,2444874.020833,28.7333,-95.2403,0215,0.3900
1981-09-26 13:00:00 UTC,2444874.041667,28.7333,-95.2403,0215,0.3900
1981-09-26 13:30:00 UTC,2444874.062500,28.7333,-95.2403,0215,0.3900
1981-09-26 14:00:00 UTC,2444874.083333,28.7333,-95.2403,0215,0.3910
1981-09-26 14:30:00 UTC,2444874.104167,28.7333,-95.2403,0215,0.3910
1981-09-26 15:00:00 UTC,2444874.125000,28.7333,-95.2403,0215,0.3910
1981-09-26 15:30:00 UTC,2444874.145833,28.7333,-95.2403,0215,0.3920
1981-09-26 16:00:00 UTC,2444874.166667,28.7333,-95.2403,0215,0.3920
1981-09-26 16:30:00 UTC,2444874.187500,28.7333,-95.2403,0215,0.3910
1981-09-26 17:00:00 UTC,2444874.208333,28.7333,-95.2403,0215,0.3910
1981-09-26 17:30:00 UTC,2444874.229167,28.7333,-95.2403,0215,0.3930
1981-09-26 18:00:00 UTC,2444874.250000,28.7333,-95.2403,0215,0.3950
1981-09-26 18:30:00 UTC,2444874.270833,28.7333,-95.2403,0215,0.3950
1981-09-26 19:00:00 UTC,2444874.291667,28.7333,-95.2403,0215,0.3950
1981-09-26 19:30:00 UTC,2444874.312500,28.7333,-95.2403,0215,0.3950
1981-09-26 20:00:00 UTC,2444874.333333,28.7333,-95.2403,0215,0.3940
1981-09-26 20:30:00 UTC,2444874.354167,28.7333,-95.2403,0215,0.3930
1981-09-26 21:00:00 UTC,2444874.375000,28.7333,-95.2403,0215,0.3910
1981-09-26 21:30:00 UTC,2444874.395833,28.7333,-95.2403,0215,0.3910
1981-09-26 22:00:00 UTC,2444874.416667,28.7333,-95.2403,0215,0.3920
1981-09-26 22:30:00 UTC,2444874.437500,28.7333,-95.2403,0215,0.3940
1981-09-26 23:00:00 UTC,2444874.458333,28.7333,-95.2403,0215,0.3940
1981-09-26 23:30:00 UTC,2444874.479167,28.7333,-95.2403,0215,0.3920
1981-09-27 00:00:00 UTC,2444874.500000,28.7333,-95.2403,0215,0.3910
1981-09-27 00:30:00 UTC,2444874.520833,28.7333,-95.2403,0215,0.3900
1981-09-27 01:00:00 UTC,2444874.541667,28.7333,-95.2403,0215,0.3910
1981-09-27 01:30:00 UTC,2444874.562500,28.7333,-95.2403,0215,0.3900
1981-09-27 02:00:00 UTC,2444874.583333,28.7333,-95.2403,0215,0.3880
1981-09-27 02:30:00 UTC,2444874.604167,28.7333,-95.2403,0215,0.3860
1981-09-27 03:00:00 UTC,2444874.625000,28.7333,-95.2403,0215,0.3850
1981-09-27 03:30:00 UTC,2444874.645833,28.7333,-95.2403,0215,0.3850
1981-09-27 04:00:00 UTC,2444874.666667,28.7333,-95.2403,0215,0.3850
1981-09-27 04:30:00 UTC,2444874.687500,28.7333,-95.2403,0215,0.3880
1981-09-27 05:00:00 UTC,2444874.708333,28.7333,-95.2403,0215,0.3910
1981-09-27 05:30:00 UTC,2444874.729167,28.7333,-95.2403,0215,0.3920
1981-09-27 06:00:00 UTC,2444874.750000,28.7333,-95.2403,0215,0.3900
1981-09-27 06:30:00 UTC,2444874.770833,28.7333,-95.2403,0215,0.3870
1981-09-27 07:00:00 UTC,2444874.791667,28.7333,-95.2403,0215,0.3840
1981-09-27 07:30:00 UTC,2444874.812500,28.7333,-95.2403,0215,0.3830
1981-09-27 08:00:00 UTC,2444874.833333,28.7333,-95.2403,0215,0.3830
1981-09-27 08:30:00 UTC,2444874.854167,28.7333,-95.2403,0215,0.3830
1981-09-27 09:00:00 UTC,2444874.875000,28.7333,-95.2403,0215,0.3820
1981-09-27 09:30:00 UTC,2444874.895833,28.7333,-95.2403,0215,0.3820
1981-09-27 10:00:00 UTC,2444874.916667,28.7333,-95.2403,0215,0.3820
1981-09-27 10:30:00 UTC,2444874.937500,28.7333,-95.2403,0215,0.3820
1981-09-27 11:00:00 UTC,2444874.958333,28.7333,-95.2403,0215,0.3810
1981-09-27 11:30:00 UTC,2444874.979167,28.7333,-95.2403,0215,0.3780
1981-09-27 12:00:00 UTC,2444875.000000,28.7333,-95.2403,0215,0.3740
1981-09-27 12:30:00 UTC,2444875.020833,28.7333,-95.2403,0215,0.3720
1981-09-27 13:00:00 UTC,2444875.041667,28.7333,-95.2403,0215,0.3720
1981-09-27 13:30:00 UTC,2444875.062500,28.7333,-95.2403,0215,0.3730
1981-09-27 14:00:00 UTC,2444875.083333,28.7333,-95.2403,0215,0.3740
1981-09-27 14:30:00 UTC,2444875.104167,28.7333,-95.2403,0215,0.3720
1981-09-27 15:00:00 UTC,2444875.125000,28.7333,-95.2403,0215,0.3690
1981-09-27 15:30:00 UTC,2444875.145833,28.7333,-95.2403,0215,0.3680
1981-09-27 16:00:00 UTC,2444875.166667,28.7333,-95.2403,0215,0.3670
1981-09-27 16:30:00 UTC,2444875.187500,28.7333,-95.2403,0215,0.3650
1981-09-27 17:00:00 UTC,2444875.208333,28.7333,-95.2403,0215,0.3630
1981-09-27 17:30:00 UTC,2444875.229167,28.7333,-95.2403,0215,0.3620
1981-09-27 18:00:00 UTC,2444875.250000,28.7333,-95.2403,0215,0.3600
1981-09-27 18:30:00 UTC,2444875.270833,28.7333,-95.2403,0215,0.3600
1981-09-27 19:00:00 UTC,2444875.291667,28.7333,-95.2403,0215,0.3590
1981-09-27 19:30:00 UTC,2444875.312500,28.7333,-95.2403,0215,0.3590
1981-09-27 20:00:00 UTC,2444875.333333,28.7333,-95.2403,0215,0.3580
1981-09-27 20:30:00 UTC,2444875.354167,28.7333,-95.2403,0215,0.3590
1981-09-27 21:00:00 UTC,2444875.375000,28.7333,-95.2403,0215,0.3610
1981-09-27 21:30:00 UTC,2444875.395833,28.7333,-95.2403,0215,0.3610
1981-09-27 22:00:00 UTC,2444875.416667,28.7333,-95.2403,0215,0.3610
1981-09-27 22:30:00 UTC,2444875.437500,28.7333,-95.2403,0215,0.3620
1981-09-27 23:00:00 UTC,2444875.458333,28.7333,-95.2403,0215,0.3610
1981-09-27 23:30:00 UTC,2444875.479167,28.7333,-95.2403,0215,0.3600
1981-09-28 00:00:00 UTC,2444875.500000,28.7333,-95.2403,0215,0.3590
1981-09-28 00:30:00 UTC,2444875.520833,28.7333,-95.2403,0215,0.3590
1981-09-28 01:00:00 UTC,2444875.541667,28.7333,-95.2403,0215,0.3600
1981-09-28 01:30:00 UTC,2444875.562500,28.7333,-95.2403,0215,0.3620
1981-09-28 02:00:00 UTC,2444875.583333,28.7333,-95.2403,0215,0.3630
1981-09-28 02:30:00 UTC,2444875.604167,28.7333,-95.2403,0215,0.3640
1981-09-28 03:00:00 UTC,2444875.625000,28.7333,-95.2403,0215,0.3640
1981-09-28 03:30:00 UTC,2444875.645833,28.7333,-95.2403,0215,0.3640
1981-09-28 04:00:00 UTC,2444875.666667,28.7333,-95.2403,0215,0.3620
1981-09-28 04:30:00 UTC,2444875.687500,28.7333,-95.2403,0215,0.3610
1981-09-28 05:00:00 UTC,2444875.708333,28.7333,-95.2403,0215,0.3610
1981-09-28 05:30:00 UTC,2444875.729167,28.7333,-95.2403,0215,0.3610
1981-09-28 06:00:00 UTC,2444875.750000,28.7333,-95.2403,0215,0.3610
1981-09-28 06:30:00 UTC,2444875.770833,28.7333,-95.2403,0215,0.3610
1981-09-28 07:00:00 UTC,2444875.791667,28.7333,-95.2403,0215,0.3610
1981-09-28 07:30:00 UTC,2444875.812500,28.7333,-95.2403,0215,0.3610
1981-09-28 08:00:00 UTC,2444875.833333,28.7333,-95.2403,0215,0.3610
1981-09-28 08:30:00 UTC,2444875.854167,28.7333,-95.2403,0215,0.3610
1981-09-28 09:00:00 UTC,2444875.875000,28.7333,-95.2403,0215,0.3610
1981-09-28 09:30:00 UTC,2444875.895833,28.7333,-95.2403,0215,0.3610
1981-09-28 10:00:00 UTC,2444875.916667,28.7333,-95.2403,0215,0.3610
1981-09-28 10:30:00 UTC,2444875.937500,28.7333,-95.2403,0215,0.3610
1981-09-28 11:00:00 UTC,2444875.958333,28.7333,-95.2403,0215,0.3620
1981-09-28 11:30:00 UTC,2444875.979167,28.7333,-95.2403,0215,0.3620
1981-09-28 12:00:00 UTC,2444876.000000,28.7333,-95.2403,0215,0.3620
1981-09-28 12:30:00 UTC,2444876.020833,28.7333,-95.2403,0215,0.3620
1981-09-28 13:00:00 UTC,2444876.041667,28.7333,-95.2403,0215,0.3610
1981-09-28 13:30:00 UTC,2444876.062500,28.7333,-95.2403,0215,0.3610
1981-09-28 14:00:00 UTC,2444876.083333,28.7333,-95.2403,0215,0.3590
1981-09-28 14:30:00 UTC,2444876.104167,28.7333,-95.2403,0215,0.3580
1981-09-28 15:00:00 UTC,2444876.125000,28.7333,-95.2403,0215,0.3590
1981-09-28 15:30:00 UTC,2444876.145833,28.7333,-95.2403,0215,0.3600
1981-09-28 16:00:00 UTC,2444876.166667,28.7333,-95.2403,0215,0.3620
1981-09-28 16:30:00 UTC,2444876.187500,28.7333,-95.2403,0215,0.3640
1981-09-28 17:00:00 UTC,2444876.208333,28.7333,-95.2403,0215,0.3630
1981-09-28 17:30:00 UTC,2444876.229167,28.7333,-95.2403,0215,0.3630
1981-09-28 18:00:00 UTC,2444876.250000,28.7333,-95.2403,0215,0.3620
1981-09-28 18:30:00 UTC,2444876.270833,28.7333,-95.2403,0215,0.3590
1981-09-28 19:00:00 UTC,2444876.291667,28.7333,-95.2403,0215,0.3550
1981-09-28 19:30:00 UTC,2444876.312500,28.7333,-95.2403,0215,0.3510
1981-09-28 20:00:00 UTC,2444876.333333,28.7333,-95.2403,0215,0.3490
1981-09-28 20:30:00 UTC,2444876.354167,28.7333,-95.2403,0215,0.3480
1981-09-28 21:00:00 UTC,2444876.375000,28.7333,-95.2403,0215,0.3480
1981-09-28 21:30:00 UTC,2444876.395833,28.7333,-95.2403,0215,0.3480
1981-09-28 22:00:00 UTC,2444876.416667,28.7333,-95.2403,0215,0.3500
1981-09-28 22:30:00 UTC,2444876.437500,28.7333,-95.2403,0215,0.3530
1981-09-28 23:00:00 UTC,2444876.458333,28.7333,-95.2403,0215,0.3500
1981-09-28 23:30:00 UTC,2444876.479167,28.7333,-95.2403,0215,0.3440
1981-09-29 00:00:00 UTC,2444876.500000,28.7333,-95.2403,0215,0.3440
1981-09-29 00:30:00 UTC,2444876.520833,28.7333,-95.2403,0215,0.3470
1981-09-29 01:00:00 UTC,2444876.541667,28.7333,-95.2403,0215,0.3510
1981-09-29 01:30:00 UTC,2444876.562500,28.7333,-95.2403,0215,0.3560
1981-09-29 02:00:00 UTC,2444876.583333,28.7333,-95.2403,0215,0.3560
1981-09-29 02:30:00 UTC,2444876.604167,28.7333,-95.2403,0215,0.3540
1981-09-29 03:00:00 UTC,2444876.625000,28.7333,-95.2403,0215,0.3520
1981-09-29 03:30:00 UTC,2444876.645833,28.7333,-95.2403,0215,0.3500
1981-09-29 04:00:00 UTC,2444876.666667,28.7333,-95.2403,0215,0.3480
1981-09-29 04:30:00 UTC,2444876.687500,28.7333,-95.2403,0215,0.3470
1981-09-29 05:00:00 UTC,2444876.708333,28.7333,-95.2403,0215,0.3470
1981-09-29 05:30:00 UTC,2444876.729167,28.7333,-95.2403,0215,0.3470
1981-09-29 06:00:00 UTC,2444876.750000,28.7333,-95.2403,0215,0.3460
1981-09-29 06:30:00 UTC,2444876.770833,28.7333,-95.2403,0215,0.3460
1981-09-29 07:00:00 UTC,2444876.791667,28.7333,-95.2403,0215,0.3470
1981-09-29 07:30:00 UTC,2444876.812500,28.7333,-95.2403,0215,0.3480
1981-09-29 08:00:00 UTC,2444876.833333,28.7333,-95.2403,0215,0.3500
1981-09-29 08:30:00 UTC,2444876.854167,28.7333,-95.2403,0215,0.3530
1981-09-29 09:00:00 UTC,2444876.875000,28.7333,-95.2403,0215,0.3540
1981-09-29 09:30:00 UTC,2444876.895833,28.7333,-95.2403,0215,0.3540
1981-09-29 10:00:00 UTC,2444876.916667,28.7333,-95.2403,0215,0.3550
1981-09-29 10:30:00 UTC,2444876.937500,28.7333,-95.2403,0215,0.3570
1981-09-29 11:00:00 UTC,2444876.958333,28.7333,-95.2403,0215,0.3600
1981-09-29 11:30:00 UTC,2444876.979167,28.7333,-95.2403,0215,0.3610
1981-09-29 12:00:00 UTC,2444877.000000,28.7333,-95.2403,0215,0.3620
1981-09-29 12:30:00 UTC,2444877.020833,28.7333,-95.2403,0215,0.3630
1981-09-29 13:00:00 UTC,2444877.041667,28.7333,-95.2403,0215,0.3660
1981-09-29 13:30:00 UTC,2444877.062500,28.7333,-95.2403,0215,0.3710
1981-09-29 14:00:00 UTC,2444877.083333,28.7333,-95.2403,0215,0.3740
1981-09-29 14:30:00 UTC,2444877.104167,28.7333,-95.2403,0215,0.3740
1981-09-29 15:00:00 UTC,2444877.125000,28.7333,-95.2403,0215,0.3720
1981-09-29 15:30:00 UTC,2444877.145833,28.7333,-95.2403,0215,0.3690
1981-09-29 16:00:00 UTC,2444877.166667,28.7333,-95.2403,0215,0.3670
1981-09-29 16:30:00 UTC,2444877.187500,28.7333,-95.2403,0215,0.3650
1981-09-29 17:00:00 UTC,2444877.208333,28.7333,-95.2403,0215,0.3630
1981-09-29 17:30:00 UTC,2444877.229167,28.7333,-95.2403,0215,0.3620
1981-09-29 18:00:00 UTC,2444877.250000,28.7333,-95.2403,0215,0.3620
1981-09-29 18:30:00 UTC,2444877.270833,28.7333,-95.2403,0215,0.3630
1981-09-29 19:00:00 UTC,2444877.291667,28.7333,-95.2403,0215,0.3620
1981-09-29 19:30:00 UTC,2444877.312500,28.7333,-95.2403,0215,0.3610
1981-09-29 20:00:00 UTC,2444877.333333,28.7333,-95.2403,0215,0.3600
1981-09-29 20:30:00 UTC,2444877.354167,28.7333,-95.2403,0215,0.3610
1981-09-29 21:00:00 UTC,2444877.375000,28.7333,-95.2403,0215,0.3620
1981-09-29 21:30:00 UTC,2444877.395833,28.7333,-95.2403,0215,0.3630
1981-09-29 22:00:00 UTC,2444877.416667,28.7333,-95.2403,0215,0.3640
1981-09-29 22:30:00 UTC,2444877.437500,28.7333,-95.2403,0215,0.3640
1981-09-29 23:00:00 UTC,2444877.458333,28.7333,-95.2403,0215,0.3640
1981-09-29 23:30:00 UTC,2444877.479167,28.7333,-95.2403,0215,0.3640
1981-09-30 00:00:00 UTC,2444877.500000,28.7333,-95.2403,0215,0.3640
1981-09-30 00:30:00 UTC,2444877.520833,28.7333,-95.2403,0215,0.3630
1981-09-30 01:00:00 UTC,2444877.541667,28.7333,-95.2403,0215,0.3630
1981-09-30 01:30:00 UTC,2444877.562500,28.7333,-95.2403,0215,0.3620
1981-09-30 02:00:00 UTC,2444877.583333,28.7333,-95.2403,0215,0.3620
1981-09-30 02:30:00 UTC,2444877.604167,28.7333,-95.2403,0215,0.3620
1981-09-30 03:00:00 UTC,2444877.625000,28.7333,-95.2403,0215,0.3620
1981-09-30 03:30:00 UTC,2444877.645833,28.7333,-95.2403,0215,0.3630
1981-09-30 04:00:00 UTC,2444877.666667,28.7333,-95.2403,0215,0.3630
1981-09-30 04:30:00 UTC,2444877.687500,28.7333,-95.2403,0215,0.3630
1981-09-30 05:00:00 UTC,2444877.708333,28.7333,-95.2403,0215,0.3630
1981-09-30 05:30:00 UTC,2444877.729167,28.7333,-95.2403,0215,0.3630
1981-09-30 06:00:00 UTC,2444877.750000,28.7333,-95.2403,0215,0.3610
1981-09-30 06:30:00 UTC,2444877.770833,28.7333,-95.2403,0215,0.3620
1981-09-30 07:00:00 UTC,2444877.791667,28.7333,-95.2403,0215,0.3620
1981-09-30 07:30:00 UTC,2444877.812500,28.7333,-95.2403,0215,0.3610
1981-09-30 08:00:00 UTC,2444877.833333,28.7333,-95.2403,0215,0.3600
1981-09-30 08:30:00 UTC,2444877.854167,28.7333,-95.2403,0215,0.3590
1981-09-30 09:00:00 UTC,2444877.875000,28.7333,-95.2403,0215,0.3590
1981-09-30 09:30:00 UTC,2444877.895833,28.7333,-95.2403,0215,0.3580
1981-09-30 10:00:00 UTC,2444877.916667,28.7333,-95.2403,0215,0.3570
1981-09-30 10:30:00 UTC,2444877.937500,28.7333,-95.2403,0215,0.3560
1981-09-30 11:00:00 UTC,2444877.958333,28.7333,-95.2403,0215,0.3550
1981-09-30 11:30:00 UTC,2444877.979167,28.7333,-95.2403,0215,0.3550
1981-09-30 12:00:00 UTC,2444878.000000,28.7333,-95.2403,0215,0.3550
1981-09-30 12:30:00 UTC,2444878.020833,28.7333,-95.2403,0215,0.3540
1981-09-30 13:00:00 UTC,2444878.041667,28.7333,-95.2403,0215,0.3510
1981-09-30 13:30:00 UTC,2444878.062500,28.7333,-95.2403,0215,0.3490
1981-09-30 14:00:00 UTC,2444878.083333,28.7333,-95.2403,0215,0.3500
1981-09-30 14:30:00 UTC,2444878.104167,28.7333,-95.2403,0215,0.3500
1981-09-30 15:00:00 UTC,2444878.125000,28.7333,-95.2403,0215,0.3510
1981-09-30 15:30:00 UTC,2444878.145833,28.7333,-95.2403,0215,0.3530
1981-09-30 16:00:00 UTC,2444878.166667,28.7333,-95.2403,0215,0.3550
1981-09-30 16:30:00 UTC,2444878.187500,28.7333,-95.2403,0215,0.3570
1981-09-30 17:00:00 UTC,2444878.208333,28.7333,-95.2403,0215,0.3580
1981-09-30 17:30:00 UTC,2444878.229167,28.7333,-95.2403,0215,0.3600
1981-09-30 18:00:00 UTC,2444878.250000,28.7333,-95.2403,0215,0.3600
1981-09-30 18:30:00 UTC,2444878.270833,28.7333,-95.2403,0215,0.3600
1981-09-30 19:00:00 UTC,2444878.291667,28.7333,-95.2403,0215,0.3600
1981-09-30 19:30:00 UTC,2444878.312500,28.7333,-95.2403,0215,0.3600
1981-09-30 20:00:00 UTC,2444878.333333,28.7333,-95.2403,0215,0.3610
1981-09-30 20:30:00 UTC,2444878.354167,28.7333,-95.2403,0215,0.3620
1981-09-30 21:00:00 UTC,2444878.375000,28.7333,-95.2403,0215,0.3630
1981-09-30 21:30:00 UTC,2444878.395833,28.7333,-95.2403,0215,0.3650
1981-09-30 22:00:00 UTC,2444878.416667,28.7333,-95.2403,0215,0.3670
1981-09-30 22:30:00 UTC,2444878.437500,28.7333,-95.2403,0215,0.3680
1981-09-30 23:00:00 UTC,2444878.458333,28.7333,-95.2403,0215,0.3670
1981-09-30 23:30:00 UTC,2444878.479167,28.7333,-95.2403,0215,0.3660
1981-10-01 00:00:00 UTC,2444878.500000,28.7333,-95.2403,0215,0.3650
1981-10-01 00:30:00 UTC,2444878.520833,28.7333,-95.2403,0215,0.3660
1981-10-01 01:00:00 UTC,2444878.541667,28.7333,-95.2403,0215,0.3650
1981-10-01 01:30:00 UTC,2444878.562500,28.7333,-95.2403,0215,0.3640
1981-10-01 02:00:00 UTC,2444878.583333,28.7333,-95.2403,0215,0.3650
1981-10-01 02:30:00 UTC,2444878.604167,28.7333,-95.2403,0215,0.3660
1981-10-01 03:00:00 UTC,2444878.625000,28.7333,-95.2403,0215,0.3640
1981-10-01 03:30:00 UTC,2444878.645833,28.7333,-95.2403,0215,0.3620